Weather Roundup
Issued by NWS

Home | Current Version | Previous Version | Text Only | Print | Product List | Glossary On
Versions: 1 2 3 4 5 6 7 8 9 10 11 12 13 14 15 16 17 18 19 20 21 22 23 24 25 26 27 28 29 30 31 32 33 34 35 36 37 38 39 40 41 42 43 44 45 46 47 48 49 50
000
NZUS93 KARX 310510
HRRWXR

CURRENT HOURLY OBSERVATIONS ACROSS
MUCH OF THE UPPER MISSISSIPPI VALLEY
NATIONAL WEATHER SERVICE LA CROSSE WI
1200 AM CDT FRI JUL 31 2015


...SOUTHEAST MINNESOTA...


CITY           SKY/WX    TMP DP  RH WIND       PRES   REMARKS
ROCHESTER      CLEAR     66  60  81 SW10      30.05F
ROCHESTER/MAYO FAIR      70  60  68 W8        30.04F
WINONA         CLEAR     70  63  78 CALM      30.02S
AUSTIN         CLEAR     66  63  88 SW6       30.06S
ALBERT LEA     PTCLDY    72  64  78 SW6       30.06F
DODGE CENTER   PTCLDY    64  59  82 W6        30.05F
PRESTON        CLEAR     69  58  68 SW9       30.06S
OWATONNA       CLEAR     66  61  82 CALM      30.05S
FARIBAULT      CLEAR     70  63  78 W8        30.05R
$$

...ELSEWHERE IN MINNESOTA...


CITY           SKY/WX    TMP DP  RH WIND       PRES   REMARKS
MINNEAPOLIS    CLEAR     73  61  65 W8        30.02S
INTNL FALLS    PTCLDY    58  55  90 CALM      29.90F
DULUTH         PTCLDY    64  53  67 W10       29.93F
RED WING       CLEAR     64  61  88 CALM      30.00F
REDWOOD FALLS  CLEAR     68  62  81 W7        30.07R
MANKATO        PTCLDY    72  61  68 W8        30.06R
WORTHINGTON    CLEAR     68  59  73 SW8       30.12S
FAIRMONT       CLEAR     72  61  68 W7        30.07F
$$

...SOUTHWEST WISCONSIN...


CITY           SKY/WX    TMP DP  RH WIND       PRES   REMARKS
LA CROSSE      CLEAR     71  60  68 SE5       30.01F
PRAIRIE DU CHI CLEAR     64  59  82 E3        30.04F
BOSCOBEL       CLEAR     64  60  87 SW3       30.04S
LONE ROCK      CLEAR     62  57  83 CALM      30.04S
PLATTEVILLE    CLEAR     68  61  78 W5        30.06S
FORT MC COY    CLEAR     60  56  86 CALM      30.02F
CAMP DOUGLAS   CLEAR     64  62  93 W5        30.00F
VIROQUA        FAIR      65  58  78 SW5       30.05S
WIS DELLS      CLEAR     69  55  60 W5        30.02F
$$

...ELSEWHERE IN WISCONSIN...


CITY           SKY/WX    TMP DP  RH WIND       PRES   REMARKS
MILWAUKEE      CLEAR     77  54  44 W8        29.99S
MADISON        CLEAR     71  55  56 CALM      30.02S
GREEN BAY      CLEAR     66  58  75 SW6       29.95F
EAU CLAIRE     CLEAR     65  57  75 SW7       29.99S
BLACK RVR FLS  FAIR      60  58  96 CALM      30.00S
MEDFORD        CLEAR     65  56  72 W6        29.99F
WAUSAU         CLEAR     71  56  58 W12       29.96F
WIS RAPIDS     CLEAR     68  57  68 W6        30.01S
MARSHFIELD     CLEAR     66  56  70 W5        30.00S
RICE LAKE      CLEAR     65  58  76 W7        30.01S
$$

...NORTHEAST IOWA...


CITY           SKY/WX    TMP DP  RH WIND       PRES   REMARKS
DECORAH        CLEAR     68  61  77 SW3       30.05F
MASON CITY     CLEAR     72  66  81 SW8       30.10S
CHARLES CITY   CLEAR     66  66 100 SW6       30.08S
OELWEIN          N/A     66  64  94 SW6       30.08F
$$

...ELSEWHERE IN IOWA...


CITY           SKY/WX    TMP DP  RH WIND       PRES   REMARKS
DES MOINES     CLEAR     74  65  73 SW6       30.11S
IOWA CITY      CLEAR     71  66  84 W6        30.09S
FORT DODGE     CLEAR     66  63  88 SW3       30.12S
$$

...NORTHERN ILLINOIS...


CITY           SKY/WX    TMP DP  RH WIND       PRES   REMARKS
CHICAGO-OHARE  CLEAR     75  59  57 W10       30.02R
CHICAGO-MIDWAY CLEAR     78  59  51 W9        30.02R
MOLINE         CLEAR     70  65  84 CALM      30.07S
ROCKFORD       CLEAR     71  58  63 W6        30.05S
PEORIA         CLEAR     76  65  68 W5        30.08S
$$

NOTE: "FAIR" INDICATES FEW OR NO CLOUDS BELOW 12,000 FEET WITH NO
SIGNIFICANT WEATHER AND/OR OBSTRUCTIONS TO VISIBILITY. WIND
SPEEDS ARE IN MILES-PER-HOUR.



USA.gov is the U.S. government's official web portal to all federal, state and local government web resources and services.